[[{"header":{"parameterUnit":"m.s-1","parameterCategory":1,"la1":30.2991,"la2":30.254,"lo1":-89.0895,"lo2":-89.0444,"dy":0.0017,"dx":0.0017,"nx":28,"ny":28,"refTime":"2023-08-06T21:00:00:Z","depth":0,"parameterNumber":2,"parameterNumberName":"U-component_of_WINDS"},"data":[0,0,0,0,0,0,0,0,0,0,0,0,0,0,0,0,0,0,0,0,0,0,0,0,0,0,0,0,0,0,0,0,0,0,0,0,0,0,0,0,0,0,0,0,0,0,0,0,0,0,0,0,0,0,0,0,0,0,2.8579,2.8582,0,2.8795,2.8797,2.88,2.8764,2.876,2.8757,2.8753,2.8981,2.8991,2.9,0,0,0,0,0,0,0,0,0,0,0,0,0,2.8144,2.8152,2.8579,2.8582,2.8584,2.8795,2.8798,2.88,2.8765,2.876,2.8756,2.8751,2.8978,2.899,2.9001,0,0,0,0,0,0,0,0,0,0,0,0,0,2.8344,2.8155,2.8579,2.8592,2.8595,2.8794,2.8798,2.8801,2.8766,2.876,2.8755,2.8749,2.8974,2.8988,2.9003,2.9204,0,0,2.9046,2.9053,0,0,0,0,0,0,0,0,2.8333,2.836,2.8587,2.8591,2.8595,2.8747,2.8728,2.8937,2.8767,2.8701,2.8753,2.8747,2.8908,2.8928,2.8981,2.9215,2.9224,2.9048,2.9056,2.9063,2.9067,0,0,0,0,0,0,0,2.8319,2.835,2.8665,2.8591,2.8596,2.859,2.8612,2.8767,2.8834,2.8707,2.8704,2.873,2.891,2.8967,2.8986,2.9228,2.9047,2.906,2.9069,2.9075,2.9641,2.9648,0,0,0,0,0,0,2.83,2.8339,2.8658,2.8671,2.8447,2.8602,2.8627,2.8704,2.8832,2.8846,2.8735,2.8728,2.8945,2.8969,2.8994,2.9241,2.9063,2.9076,2.9084,2.9635,2.9643,2.965,0,0,0,0,0,0,2.8291,2.8329,2.8649,2.8505,2.8545,2.8615,2.8702,2.8711,2.8769,2.8853,2.8866,2.8781,2.8942,2.8974,2.9152,2.9248,2.9082,2.9096,2.9627,2.9637,2.9646,2.9734,0,0,0,0,0,0,2.8278,2.8326,2.8401,2.8507,2.8553,2.8802,2.8708,2.8719,2.8793,2.8785,2.89,2.8914,2.894,2.9131,2.9167,2.9265,2.9107,2.9619,2.9632,2.9643,2.9723,2.9745,2.9765,0,0,0,0,0,2.8263,2.8418,2.8405,2.8444,2.8648,2.8807,2.8834,2.8859,2.88,2.8878,2.8933,2.891,2.9231,2.915,2.9189,2.9293,2.9613,2.9628,2.9642,2.9714,2.9741,2.9764,0,0,0,0,0,0,2.8324,2.8432,2.8419,2.8612,2.87,2.8801,2.89,2.8887,2.8996,2.8985,2.9013,2.904,2.9222,2.9275,2.9182,2.9497,2.9415,2.9438,2.9455,2.9482,2.9502,2.9487,2.9119,0,0,0,0,0,2.8359,2.8477,2.8566,2.8728,2.8773,2.8829,2.8899,2.8911,2.9005,2.9043,2.911,2.9204,2.9327,2.9407,2.9524,2.973,2.9756,2.9821,2.9842,2.9859,2.9879,2.9995,3.0026,2.9697,2.9697,2.9697,0,0,2.8435,2.8508,2.8581,2.8742,2.8812,2.8937,2.8861,2.8995,2.9088,2.9064,2.9237,2.929,2.9397,2.9591,2.968,2.9641,2.9976,2.9877,2.989,2.9902,3.0014,3.0045,3.0072,2.9707,2.9705,2.9704,0,0,2.8636,2.8702,2.8845,2.8917,2.9023,2.9059,2.9094,2.9197,2.9231,2.9404,2.9389,2.9502,2.9711,2.9789,2.9856,3.0088,3.0072,3.0126,3.0236,3.0349,3.0375,3.0398,3.0484,3.0514,3.0145,3.0145,3.0146,0,2.8717,2.8901,2.8921,2.9058,2.9131,2.9112,2.9259,2.9328,2.9469,2.9521,2.9474,2.9738,2.9809,3.0022,3.0079,3.0133,3.0176,3.0114,3.0368,3.0392,3.0414,3.0496,3.0528,3.0151,3.0151,3.015,3.015,0,2.8997,2.9125,2.9228,2.9363,2.9447,2.9588,2.9633,2.9716,2.9721,2.9763,2.9942,3.0025,3.016,3.0211,3.0218,3.0427,3.04,3.0361,3.028,3.0451,3.0529,3.0561,3.016,3.0158,3.0156,3.0155,0,0,2.9243,2.9386,2.9425,2.9486,2.9603,2.9704,2.9846,2.9975,3.0048,3.0145,3.0267,3.0445,3.0411,3.0487,3.0502,3.06,3.0783,3.055,3.0553,3.0593,3.1022,3.1053,3.1089,3.0772,3.0778,3.0783,3.1014,0,2.9457,2.9705,2.9728,2.9952,3.0073,3.0057,3.0181,3.0268,3.0311,3.0422,3.0471,3.0598,3.054,3.0587,3.0683,3.074,3.087,3.0723,3.0889,3.0895,3.0865,3.1129,3.1161,3.1376,3.1045,3.105,3.1053,0,2.974,2.9845,3.008,3.0182,3.0233,3.0344,3.0466,3.0571,3.067,3.0695,3.0781,3.0783,3.0932,3.0843,3.1052,3.0951,3.1021,3.1059,3.1068,3.1087,3.0986,3.1158,3.1444,3.1478,3.1101,3.1097,3.1094,0,2.99,3.01,3.0267,3.032,3.0442,3.052,3.0575,3.0668,3.0746,3.0853,3.0905,3.1029,3.1098,3.1195,3.1233,3.1164,3.144,3.1354,3.1468,3.1468,3.1529,3.1525,3.1834,3.1569,3.1569,3.1568,3.1568,0,3.0139,3.0284,3.034,3.0444,3.0607,3.0633,3.0795,3.0847,3.093,3.1045,3.1039,3.1148,3.1189,3.1306,3.1336,3.1506,3.1536,3.1563,3.157,3.1565,3.1562,3.1613,3.16,3.1577,3.1575,3.1573,3.1572,0,3.0346,3.0389,3.0571,3.0671,3.0699,3.0816,3.0903,3.1004,3.1045,3.1192,3.1228,3.1294,3.1431,3.1477,3.1643,3.1663,3.1862,3.1855,3.1828,3.183,3.1944,3.1934,3.2298,3.2349,3.2048,3.205,3.2053,0,3.0496,3.0608,3.072,3.0795,3.0853,3.0975,3.1054,3.1084,3.1167,3.1289,3.1377,3.1512,3.1622,3.1842,3.1907,3.2035,3.2033,3.2151,3.2052,3.2045,3.2038,3.2032,3.2045,3.2171,3.2174,3.2177,3.2179,0,3.076,3.0776,3.0889,3.101,3.1104,3.1201,3.1295,3.1358,3.1403,3.1497,3.1636,3.1721,3.189,3.2026,3.2157,3.2216,3.2208,3.2209,3.2243,3.2241,3.2222,3.2237,3.1882,3.2201,3.2199,3.2197,3.2196,3.2195,3.0946,3.1045,3.114,3.1266,3.134,3.1428,3.1529,3.1583,3.1698,3.1837,3.1849,3.2,3.2098,3.2272,3.2338,3.2459,3.2426,3.2474,3.2487,3.2499,3.251,3.22,3.2483,3.2482,3.2481,3.2481,3.2481,0,3.1213,3.1272,3.1388,3.152,3.162,3.1598,3.1702,3.1788,3.192,3.2012,3.212,3.2281,3.2413,3.2488,3.2621,3.2703,3.2703,3.2738,3.2734,3.2748,3.253,3.2489,3.2736,3.2736,3.2736,3.2736,3.2736,3.2736,3.1363,3.1531,3.1558,3.1764,3.1823,3.1969,3.2031,3.2113,3.2187,3.2366,3.2475,3.2522,3.2609,3.2748,3.2869,3.2888,3.2938,3.2977,3.2994,3.2789,3.2763,3.2738,3.27,3.2987,3.2988,3.3202,3.3204,3.3206]},{"header":{"parameterUnit":"m.s-1","parameterCategory":1,"la1":30.2991,"la2":30.254,"lo1":-89.0895,"lo2":-89.0444,"dy":0.0017,"dx":0.0017,"nx":28,"ny":28,"refTime":"2023-08-06T21:00:00:Z","depth":0,"parameterNumber":3,"parameterNumberName":"V-component_of_WINDS"},"data":[0,0,0,0,0,0,0,0,0,0,0,0,0,0,0,0,0,0,0,0,0,0,0,0,0,0,0,0,0,0,0,0,0,0,0,0,0,0,0,0,0,0,0,0,0,0,0,0,0,0,0,0,0,0,0,0,0,0,4.2014,4.2017,0,4.2256,4.2258,4.2261,4.2244,4.2241,4.2237,4.2234,4.2481,4.2491,4.2501,0,0,0,0,0,0,0,0,0,0,0,0,0,4.1538,4.1547,4.2014,4.2017,4.202,4.2255,4.2259,4.2262,4.2245,4.2241,4.2236,4.2232,4.2478,4.249,4.2502,0,0,0,0,0,0,0,0,0,0,0,0,0,4.1759,4.155,4.2013,4.204,4.2045,4.2255,4.2259,4.2263,4.2246,4.224,4.2235,4.223,4.2474,4.2489,4.2503,4.2702,0,0,4.2549,4.2555,0,0,0,0,0,0,0,0,4.1746,4.1776,4.2033,4.2038,4.2044,4.2214,4.2181,4.241,4.2247,4.217,4.2234,4.2227,4.2397,4.2418,4.2475,4.2714,4.2725,4.255,4.2559,4.2565,4.257,0,0,0,0,0,0,0,4.1731,4.1766,4.2109,4.2037,4.2044,4.204,4.2065,4.2225,4.231,4.2176,4.2175,4.2204,4.2399,4.246,4.248,4.2728,4.255,4.2563,4.2572,4.2578,4.3144,4.315,0,0,0,0,0,0,4.171,4.1753,4.2102,4.2117,4.1879,4.2053,4.2081,4.2165,4.2308,4.2325,4.2208,4.2202,4.2438,4.2463,4.2489,4.2733,4.2565,4.2579,4.2588,4.3138,4.3145,4.3152,0,0,0,0,0,0,4.1699,4.1741,4.2092,4.1935,4.1979,4.2067,4.2161,4.2173,4.2234,4.2333,4.2348,4.2256,4.2434,4.2468,4.265,4.2741,4.2586,4.2599,4.3131,4.314,4.3149,4.3221,0,0,0,0,0,0,4.1686,4.1737,4.1814,4.1937,4.1988,4.2249,4.2167,4.2181,4.226,4.2255,4.2382,4.2397,4.2433,4.2628,4.2665,4.2759,4.2611,4.3123,4.3135,4.3146,4.3211,4.3232,4.325,0,0,0,0,0,4.1669,4.1825,4.1818,4.186,4.2085,4.2254,4.2284,4.2321,4.2268,4.2346,4.2409,4.2393,4.2725,4.2646,4.2688,4.2788,4.3117,4.3131,4.3145,4.3203,4.3228,4.3249,0,0,0,0,0,0,4.171,4.1841,4.1835,4.2035,4.2134,4.2251,4.2351,4.2346,4.2462,4.2452,4.2494,4.2523,4.2706,4.2764,4.2675,4.2989,4.2914,4.2937,4.2944,4.2969,4.2987,4.297,4.2623,0,0,0,0,0,4.1743,4.1869,4.1976,4.2142,4.2192,4.2263,4.2338,4.2358,4.2462,4.2504,4.258,4.2682,4.2809,4.2891,4.3014,4.3219,4.3247,4.3308,4.3327,4.3343,4.3362,4.3476,4.3505,4.3197,4.3197,4.3197,0,0,4.1811,4.1898,4.1975,4.2153,4.2232,4.2362,4.2298,4.2438,4.2536,4.2525,4.2702,4.2761,4.2877,4.3072,4.3161,4.3126,4.3453,4.336,4.3371,4.3383,4.3493,4.3522,4.3548,4.3206,4.3205,4.3203,0,0,4.2002,4.208,4.2228,4.2308,4.2429,4.2475,4.251,4.2628,4.2668,4.2845,4.2841,4.2956,4.3174,4.3257,4.3328,4.355,4.3541,4.3589,4.369,4.38,4.3825,4.3846,4.3927,4.3955,4.3607,4.3608,4.3608,0,4.2072,4.2269,4.2304,4.2447,4.2525,4.2521,4.2672,4.2747,4.2901,4.2956,4.2914,4.3188,4.3265,4.348,4.3534,4.3591,4.3633,4.3575,4.3818,4.384,4.3861,4.3939,4.3969,4.3613,4.3612,4.3612,4.3611,0,4.2349,4.2485,4.259,4.2739,4.2829,4.2974,4.3033,4.312,4.3132,4.3182,4.3363,4.3456,4.3598,4.3649,4.3663,4.3867,4.3841,4.3809,4.3735,4.3895,4.3969,4.3999,4.362,4.3618,4.3617,4.3616,0,0,4.2575,4.2742,4.278,4.2848,4.298,4.3086,4.3231,4.3369,4.3444,4.3549,4.3673,4.3857,4.3827,4.3908,4.393,4.4027,4.4199,4.3982,4.3986,4.4021,4.4431,4.4456,4.4489,4.4192,4.4198,4.4203,4.4421,0,4.2781,4.3039,4.3075,4.3303,4.3429,4.3427,4.3554,4.3648,4.3699,4.3814,4.3869,4.4,4.395,4.3999,4.4094,4.4158,4.4282,4.4142,4.4309,4.4314,4.4282,4.4528,4.4555,4.4757,4.445,4.4455,4.4459,0,4.3057,4.3171,4.3411,4.3526,4.3581,4.3694,4.3824,4.3933,4.4041,4.4071,4.416,4.4171,4.4321,4.4239,4.4447,4.4351,4.4421,4.4462,4.4471,4.449,4.4397,4.4555,4.4822,4.4853,4.4504,4.45,4.4497,0,4.3199,4.3412,4.3584,4.3642,4.3781,4.386,4.3922,4.4024,4.4105,4.4218,4.4271,4.44,4.4471,4.4571,4.4616,4.4552,4.4822,4.4744,4.4852,4.4851,4.4911,4.4907,4.5195,4.4953,4.4952,4.4952,4.4951,0,4.3427,4.3574,4.365,4.3756,4.3922,4.3962,4.4124,4.4183,4.4273,4.4391,4.4396,4.4506,4.4558,4.4675,4.4711,4.4879,4.4911,4.494,4.4948,4.4941,4.4937,4.4988,4.4976,4.496,4.4958,4.4956,4.4955,0,4.3615,4.3672,4.3859,4.3975,4.4007,4.4124,4.4223,4.4326,4.4375,4.4523,4.456,4.4638,4.4777,4.4831,4.5001,4.5025,4.5219,4.5215,4.5183,4.5186,4.5292,4.5282,4.5625,4.5672,4.5397,4.5399,4.5401,0,4.3758,4.3871,4.3999,4.4078,4.4142,4.4269,4.4352,4.4396,4.4482,4.4613,4.47,4.4838,4.4952,4.5174,4.5246,4.5376,4.5376,4.5487,4.5396,4.5385,4.538,4.5373,4.5385,4.5504,4.5507,4.551,4.5511,0,4.4005,4.4028,4.4147,4.4277,4.4376,4.448,4.4581,4.4645,4.4704,4.48,4.4943,4.5031,4.5204,4.5342,4.5476,4.5539,4.5536,4.5539,4.5572,4.5566,4.5544,4.5559,4.5231,4.5532,4.553,4.5528,4.5527,4.5526,4.4177,4.4278,4.4384,4.4517,4.4597,4.4692,4.4795,4.4857,4.4976,4.5121,4.5139,4.5292,4.5397,4.5576,4.5644,4.5765,4.5736,4.5782,4.5794,4.5805,4.5814,4.5523,4.5789,4.5788,4.5788,4.5788,4.5787,0,4.4426,4.4494,4.4616,4.4757,4.4862,4.4849,4.4961,4.5049,4.5184,4.5281,4.5393,4.5557,4.5691,4.5772,4.5907,4.5988,4.599,4.6022,4.6017,4.6032,4.5831,4.5791,4.6018,4.6018,4.6018,4.6018,4.6018,4.6018,4.4568,4.4739,4.4774,4.4985,4.5052,4.5203,4.5267,4.5355,4.5433,4.5616,4.5727,4.578,4.5871,4.6012,4.6135,4.6155,4.6205,4.624,4.6259,4.607,4.6046,4.6023,4.5986,4.625,4.625,4.645,4.6452,4.6453]}]]